Погода в Азъяле

Россия / Республика Марий Эл     56°24′01″N   48°54′39″E
темп.,
°C
ветер,
м/с
пор.,
м/с
влажн.,
%
обл.,
%
осадки,
мм/ч
давл.,
гПа
погр.,
м
29 января, сб
сб2900:00−8ююв3996100 0.4 1018325
03:00−8ююв3996100 0.7 1017319
06:00−9юв399689 0.4 1015291
09:00−11юв389569 0.4 1015229
12:00−8ююв369194 0.0 1014309
15:00−10юв3695100 0.0 1013214
18:00−11юв2796100 0.0 1012197
21:00−11юв3996100 0.0 1011243
30 января, вс
вс3000:00−10юв3996100 0.1 1009282
03:00−9юв3895100 0.6 1008338
06:00−10юв379685 0.3 1007237
09:00−10юв379584 0.5 1006231
12:00−8ююв3593100 0.1 1006292
15:00−8юв249698 0.1 1006186
18:00−16вюв11100100 0.0 100710
21:00−17вюв11100100 0.1 100710
31 января, пн
пн3100:00−16вюв11100100 0.1 10089
03:00−14в1110089 0.1 100811
06:00−10вюв159784 0.1 100896
09:00−9юв289892 0.2 1009185
12:00−7ююв499298 0.1 1009334
15:00−8юв41194100 0.1 1008363
18:00−6юв51295100 0.8 1008528
21:00−4юв51296100 1.6 1007521
1 февраля, вт
вт100:00−2ююв51397100 1.3 1005733
03:00−1ю51397100 2.3 1004821
06:00−1ю61396100 1.1 1004856
09:00−2ююв61396100 2.3 1003881
12:000ю51296100 0.9 1003926
15:00−1ю51194100 1.6 1003950
18:00−1ю3998100 1.5 1003688
21:00−2ююз51096100 2.4 1004800
2 февраля, ср
ср200:00−4ююз51195100 0.6 1006709
03:00−5ююз51195100 1.2 1008665
06:00−7ююз51193100 0.3 1010513
09:00−9ююз41195100 0.3 1012413
12:00−7ююз4993100 0.0 1013484
15:00−7ююв399496 0.1 1014379
18:00−7юв41396100 0.1 1013379
21:00−2ююв61597100 1.3 1010898